sat.trackr.live / text

‹ back to catalog

2025-197C

NORAD 65490 · 2025-197C

PAYLOAD ACTIVE UNKNOWN

§ Identity

Operator
Country
PRC
Launch date
2025-09-05
Launch site
JSC
Launch vehicle
Mass (kg)
RCS (m²)

External: N2YO · Heavens-Above · Gunter

§ Orbital elements

Epoch: 2026-09-20T12:22:39.184320Z

Period
94.42 min
Inclination
97.4110°
Eccentricity
0.0015148
Mean motion
15.25179741 rev/d
Perigee alt
479.8 km
Apogee alt
500.6 km
Semi-major
6,868.4 km
B*
1.1974e-4
RAAN
89.5253°
Arg perigee
39.7364°
Mean anomaly
320.4980°
Rev number
5,784

§ Raw data

2025-197C1 65490U 25197C   26263.51573130  .00002940  00000+0  11974-3 0  99912 65490  97.4110  89.5253 0015148  39.7364 320.4980 15.25179741 57843

JSON: /api/v1/satellites/65490 · /tle

For live sub-satellite position, see the globe view (requires WebGL).

§ Visibility from observer

Set your observer location to see the next 7 days of passes ≥ 10°. The values pass through the URL so the page stays shareable.

No JS? Fill the form by hand. The geolocation button needs JavaScript.